SCP
0 0 0 0 0 0 0 0 0 0 0 0 0 0 -0 -0 -0 0 0 0 0 0 0 0 0 0 0 0 1 0 0 0 1 0 0 0 0 0
0 0 0 0 0 0 0 0 0 0 0 0 0 -0 -0 -0 -0 -0 0 0 0 0 0 0 0 0 0 0 0 0 0 0 0 0 0 0 0 0
0 0 0 0 0 0 0 0 0 0 0 0 0 0 -0 0 -0 0 0 0 0 0 0 0 0 0 0 0 0 0 0 0 0 0 0 0 0 0
0 0 0 0 0 0 0 0 0 0 0 0 0 0 0 0 0 0 0 0 0 0 0 0 0 0 0 0 0 0 0 0 0 0 0 0 0 0
0 0 0 0 0 0 0 0 0 0 0 0 0 0 0 0 0 0 0 0 0 0 0 0 0 0 0 0 0 -0 0 0 0 -0 0 0 0 0
0 0 0 0 0 0 0 0 0 0 0 0 0 0 0 0 0 0 0 0 0 0 0 0 0 0 0 0 0 0 0 0 0 0 -0 0 0 0
0 0 0 0 0 0 0 0 0 0 0 0 0 0 0 0 0 0 0 0 0 0 0 0 0 0 0 0 0 0 0 0 0 0 0 0 0 0
0 0 0 0 0 0 0 0 0 0 0 0 0 0 0 0 0 0 0 0 0 0 0 -0 0 0 0 0 0 0 0 0 0 0 0 0 0 0
0 0 0 0 0 0 0 0 0 0 0 0 0 0 0 0 0 0 0 0 0 0 0 0 0 0 0 0 0 0 0 0 0 0 0 0 0 0
0 0 0 0 0 0 0 0 0 0 0 0 0 0 0 0 0 0 0 0 0 0 0 0 0 0 0 0 0 0 0 0 0 0 0 0 0 0
0 0 0 0 0 0 0 0 0 0 0 0 0 0 0 0 0 0 0 0 0 0 0 0 0 0 0 0 0 0 0 0 0 0 0 0 0 0
0 0 0 0 0 0 0 0 0 0 0 0 0 0 0 0 0 0 0 0 0 0 0 0 0 0 0 0 0 0 0 0 0 0 0 0 0 0
0 0 0 0 0 0 0 0 0 0 0 0 0 0 0 0 0 0 0 0 0 0 0 0 0 0 0 0 0 0 0 0 0 0 0 0 0 0
0 0 0 0 0 0 0 0 0 0 0 0 0 0 0 0 0 0 0 0 0 0 0 0 0 0 0 0 0 0 0 0 0 0 0 0 0 0
0 0 0 0 0 0 0 0 0 0 0 0 0 0 0 0 0 0 0 0 0 0 0 0 0 0 0 0 0 0 0 0 0 0 0 0 0 0
0 0 0 0 0 0 0 0 0 0 0 0 0 0 0 0 0 0 0 0 0 0 0 0 0 0 0 0 0 0 0 0 0 0 0 0 0 0
0 0 0 0 0 -0 0 0 0 0 0 0 0 0 0 0 0 0 0 0 0 0 -0 0 0 0 0 0 0 0 0 0 0 0 0 0 0 0
0 0 0 0 0 0 0 0 0 0 0 0 0 0 0 0 0 0 0 0 0 0 0 0 0 0 0 0 0 0 0 0 0 0 0 0 0 0
0 0 0 0 0 0 0 0 0 0 0 0 0 0 0 0 0 0 0 0 0 0 0 0 0 0 0 0 0 0 0 0 0 0 0 0 0 0
0 0 0 0 0 0 0 0 0 0 0 0 0 0 0 0 0 0 0 0 0 0 0 0 0 0 0 0 0 0 0 0 0 0 0 0 0 -0
0 0 0 0 -0 -0 0 0 0 0 0 0 0 0 0 0 0 0 0 0 0 0 0 0 0 0 0 0 0 0 0 0 0 0 0 0 0 0
0 0 0 0 0 0 0 0 0 0 0 0 0 0 0 0 0 0 0 0 0 0 0 0 0 0 0 0 0 0 0 0 0 -0 -0 -0 0 0
0 0 0 0 0 0 0 0 0 0 0 0 0 0 0 0 0 0 0 0 0 0 0 0 0 0 0 0 0 0 0 0 0 -0 -0 -0 -0 -0
Wind_Speed_500mb
44 39 50 60 56 46 52 54 55 62 60 55 58 62 62 63 68 61 53 41 41 38 37 36 37 49 61 45 63 43 40 40 33 31 24 19 25 26
53 58 55 51 51 50 43 49 55 66 58 73 79 79 78 75 69 63 42 30 30 35 33 38 34 34 39 47 41 43 52 43 36 30 31 38 32 32
50 50 52 49 41 47 49 49 49 54 68 75 71 71 68 67 66 56 55 51 32 33 25 26 32 43 40 43 52 50 46 61 47 58 59 44 40 36
50 49 40 39 33 36 39 46 53 50 50 64 69 73 66 56 51 54 50 38 43 38 38 34 31 29 38 36 40 67 62 60 72 73 52 56 47 40
42 38 33 32 36 42 50 52 47 52 59 66 68 58 58 64 55 44 46 42 45 40 39 33 22 33 38 47 48 42 49 60 78 81 75 66 51 43
34 31 28 34 41 47 43 50 58 62 61 61 64 63 60 55 51 57 59 51 53 48 46 41 29 14 18 32 42 55 49 50 63 67 72 71 60 50
31 31 33 38 36 34 45 43 45 52 59 63 66 68 68 64 58 56 54 55 56 49 56 50 47 31 9 18 33 46 51 54 56 63 70 71 67 59
33 34 39 42 32 33 40 48 56 64 70 70 68 67 68 63 60 55 57 58 56 47 49 52 43 47 40 20 12 26 40 54 53 59 67 69 68 64
32 36 38 33 35 41 47 57 65 65 64 60 59 58 60 58 58 59 59 55 60 64 61 68 53 47 40 39 35 20 18 33 51 54 53 60 64 62
31 32 24 29 36 44 58 66 65 67 67 62 57 54 52 54 58 59 62 70 69 58 47 53 47 42 39 34 35 45 37 28 26 40 50 60 67 63
32 32 18 22 34 48 56 63 69 72 64 62 59 53 48 49 49 45 53 50 57 54 39 40 39 36 29 23 22 30 45 50 35 32 41 41 54 60
40 29 12 23 41 47 53 60 72 74 75 68 60 54 50 48 43 37 35 37 39 40 17 15 16 16 11 11 2 10 31 48 68 55 41 38 47 47
42 33 22 34 44 44 51 60 69 66 60 56 52 51 51 46 40 37 29 30 32 35 34 32 29 20 15 16 17 9 5 16 26 55 59 50 47 50
36 33 30 35 41 44 56 64 70 57 53 53 53 55 57 45 40 35 32 30 29 31 28 27 32 26 24 21 24 21 21 15 9 19 51 63 57 51
32 27 29 35 40 45 59 67 72 60 55 55 52 54 48 42 38 33 30 32 28 29 33 26 30 30 33 33 29 24 31 29 16 16 22 56 60 58
28 22 25 36 41 50 58 69 75 72 65 59 55 52 47 41 35 26 26 25 30 26 24 24 24 29 34 33 26 28 20 23 27 19 22 23 47 54
28 30 39 38 44 53 56 70 78 84 76 66 60 56 43 32 26 21 19 16 17 21 21 15 14 18 22 26 30 30 26 22 21 17 15 2 26 32
28 33 40 42 48 55 62 73 81 88 84 67 57 50 38 27 24 19 17 16 20 20 15 14 16 12 17 26 31 27 20 23 11 11 12 3 13 23
38 39 38 43 48 53 59 69 81 85 81 59 52 47 37 29 23 19 19 12 13 11 8 7 15 23 22 17 8 9 16 19 10 10 11 11 11 13
46 45 44 47 51 55 60 68 77 82 81 58 47 42 36 32 29 24 19 17 10 3 5 5 13 19 21 13 11 9 8 15 21 11 12 10 8 8
68 61 51 53 56 58 61 66 74 80 81 59 46 37 35 37 32 33 34 27 16 15 17 13 7 16 18 13 14 11 11 19 26 22 12 10 8 6
65 67 66 64 65 64 66 68 71 81 87 68 44 36 36 42 32 34 31 23 16 3 6 4 11 18 22 14 14 13 7 11 18 12 8 4 3 3
60 62 70 69 70 73 70 67 70 77 87 70 50 37 35 30 24 31 27 21 16 16 16 19 18 17 14 13 15 8 7 10 10 8 9 10 7 3
Wind_Direction_500mb
317 311 307 308 311 305 303 304 310 320 320 320 316 311 309 305 309 316 315 322 311 316 300 295 304 268 249 232 222 225 219 219 205 216 215 225 257 252
307 310 313 310 305 307 307 302 299 305 314 311 310 309 308 308 309 310 309 311 305 296 312 310 299 298 255 235 221 216 223 221 218 228 232 226 240 250
318 315 310 308 308 310 305 306 311 310 314 309 310 307 305 307 308 315 309 305 300 297 290 280 290 279 260 256 247 240 238 223 238 243 261 249 222 251
316 315 317 319 329 326 320 316 314 315 315 315 315 314 315 315 317 316 321 330 309 289 294 286 265 264 278 280 270 246 238 237 238 240 245 248 227 244
324 325 329 337 323 318 316 320 321 318 317 316 316 319 314 316 317 310 306 304 308 301 269 280 299 266 250 262 270 272 244 242 241 238 244 241 241 242
328 328 340 320 319 315 317 319 318 317 320 321 320 322 319 318 320 315 305 300 305 301 298 283 276 258 240 247 241 241 243 247 245 235 231 235 233 237
335 336 337 333 333 323 317 325 331 331 330 326 319 320 323 326 323 318 315 317 308 309 297 292 284 250 224 221 234 237 246 244 238 233 235 232 232 240
330 339 333 330 327 333 333 334 330 327 326 321 314 309 313 316 319 316 311 309 311 308 308 290 296 274 248 238 220 218 235 238 237 232 227 230 236 240
331 324 323 332 340 338 329 327 327 324 320 320 313 311 308 308 306 306 308 299 295 293 296 296 300 286 276 257 240 222 230 234 237 240 235 232 235 236
331 333 326 338 343 333 324 323 323 324 321 316 311 310 306 304 299 297 298 292 291 295 297 293 296 291 291 272 255 238 228 222 227 228 231 235 234 229
338 331 325 343 328 322 325 327 330 328 321 316 313 314 307 302 302 292 299 294 291 291 296 288 292 299 299 286 276 271 253 234 230 229 232 234 232 227
338 337 309 331 331 334 333 333 331 329 323 317 312 310 312 310 309 291 294 289 286 292 292 294 308 324 320 309 108 284 264 260 241 243 232 227 221 220
335 331 333 345 339 339 339 339 337 327 324 319 315 309 311 314 314 310 286 283 284 271 270 274 281 269 287 298 310 317 261 258 258 237 229 231 227 227
325 325 336 339 340 347 348 345 346 343 338 332 326 323 322 320 317 308 284 276 283 279 277 266 269 279 265 286 310 316 320 317 262 246 240 236 234 235
326 329 324 329 343 344 349 353 358 357 351 343 334 328 322 314 317 310 297 261 268 276 274 263 258 265 260 269 294 312 318 321 301 254 312 234 233 230
343 331 327 336 344 342 347 357 1 2 356 346 340 337 334 321 322 323 304 270 264 274 261 262 260 264 252 258 278 294 303 300 299 280 323 229 214 218
338 336 335 340 340 340 350 357 358 3 358 349 344 337 331 335 331 328 305 272 275 270 255 248 260 257 253 257 271 281 292 284 292 299 344 90 203 224
336 338 340 344 343 346 354 354 357 1 357 351 352 355 349 347 344 335 310 284 281 284 269 224 224 212 230 257 269 275 263 270 285 308 349 329 215 222
339 348 354 352 351 356 355 354 357 358 357 358 5 8 6 357 351 337 319 297 294 283 261 241 222 227 240 260 274 265 254 253 261 307 300 333 305 270
25 11 8 4 2 360 356 357 357 357 0 2 4 5 3 357 348 340 332 315 285 233 271 235 217 207 211 224 232 282 263 231 236 253 295 323 329 350
26 23 17 16 9 3 359 360 358 359 3 2 357 359 356 347 337 334 323 302 274 261 270 284 249 214 207 235 261 276 292 232 225 239 292 314 302 355
19 17 21 21 14 8 3 0 0 3 3 2 358 360 357 8 26 10 5 1 28 70 303 103 154 179 192 218 251 277 278 211 214 239 268 312 219 64
8 10 14 15 11 8 3 3 4 4 4 4 9 13 11 26 25 21 17 43 74 109 125 128 136 156 190 242 256 202 165 160 174 183 167 139 110 103
Wind_Speed_850mb
44 39 50 60 56 46 52 54 55 62 60 55 58 62 62 63 68 61 53 41 41 38 37 36 37 49 61 45 63 43 40 40 33 31 24 19 25 26
53 58 55 51 51 50 43 49 55 66 58 73 79 79 78 75 69 63 42 30 30 35 33 38 34 34 39 47 41 43 52 43 36 30 31 38 32 32
50 50 52 49 41 47 49 49 49 54 68 75 71 71 68 67 66 56 55 51 32 33 25 26 32 43 40 43 52 50 46 61 47 58 59 44 40 36
50 49 40 39 33 36 39 46 53 50 50 64 69 73 66 56 51 54 50 38 43 38 38 34 31 29 38 36 40 67 62 60 72 73 52 56 47 40
42 38 33 32 36 42 50 52 47 52 59 66 68 58 58 64 55 44 46 42 45 40 39 33 22 33 38 47 48 42 49 60 78 81 75 66 51 43
34 31 28 34 41 47 43 50 58 62 61 61 64 63 60 55 51 57 59 51 53 48 46 41 29 14 18 32 42 55 49 50 63 67 72 71 60 50
31 31 33 38 36 34 45 43 45 52 59 63 66 68 68 64 58 56 54 55 56 49 56 50 47 31 9 18 33 46 51 54 56 63 70 71 67 59
33 34 39 42 32 33 40 48 56 64 70 70 68 67 68 63 60 55 57 58 56 47 49 52 43 47 40 20 12 26 40 54 53 59 67 69 68 64
32 36 38 33 35 41 47 57 65 65 64 60 59 58 60 58 58 59 59 55 60 64 61 68 53 47 40 39 35 20 18 33 51 54 53 60 64 62
31 32 24 29 36 44 58 66 65 67 67 62 57 54 52 54 58 59 62 70 69 58 47 53 47 42 39 34 35 45 37 28 26 40 50 60 67 63
32 32 18 22 34 48 56 63 69 72 64 62 59 53 48 49 49 45 53 50 57 54 39 40 39 36 29 23 22 30 45 50 35 32 41 41 54 60
40 29 12 23 41 47 53 60 72 74 75 68 60 54 50 48 43 37 35 37 39 40 17 15 16 16 11 11 2 10 31 48 68 55 41 38 47 47
42 33 22 34 44 44 51 60 69 66 60 56 52 51 51 46 40 37 29 30 32 35 34 32 29 20 15 16 17 9 5 16 26 55 59 50 47 50
36 33 30 35 41 44 56 64 70 57 53 53 53 55 57 45 40 35 32 30 29 31 28 27 32 26 24 21 24 21 21 15 9 19 51 63 57 51
32 27 29 35 40 45 59 67 72 60 55 55 52 54 48 42 38 33 30 32 28 29 33 26 30 30 33 33 29 24 31 29 16 16 22 56 60 58
28 22 25 36 41 50 58 69 75 72 65 59 55 52 47 41 35 26 26 25 30 26 24 24 24 29 34 33 26 28 20 23 27 19 22 23 47 54
28 30 39 38 44 53 56 70 78 84 76 66 60 56 43 32 26 21 19 16 17 21 21 15 14 18 22 26 30 30 26 22 21 17 15 2 26 32
28 33 40 42 48 55 62 73 81 88 84 67 57 50 38 27 24 19 17 16 20 20 15 14 16 12 17 26 31 27 20 23 11 11 12 3 13 23
38 39 38 43 48 53 59 69 81 85 81 59 52 47 37 29 23 19 19 12 13 11 8 7 15 23 22 17 8 9 16 19 10 10 11 11 11 13
46 45 44 47 51 55 60 68 77 82 81 58 47 42 36 32 29 24 19 17 10 3 5 5 13 19 21 13 11 9 8 15 21 11 12 10 8 8
68 61 51 53 56 58 61 66 74 80 81 59 46 37 35 37 32 33 34 27 16 15 17 13 7 16 18 13 14 11 11 19 26 22 12 10 8 6
65 67 66 64 65 64 66 68 71 81 87 68 44 36 36 42 32 34 31 23 16 3 6 4 11 18 22 14 14 13 7 11 18 12 8 4 3 3
60 62 70 69 70 73 70 67 70 77 87 70 50 37 35 30 24 31 27 21 16 16 16 19 18 17 14 13 15 8 7 10 10 8 9 10 7 3
Wind_Direction_850mb
317 311 307 308 311 305 303 304 310 320 320 320 316 311 309 305 309 316 315 322 311 316 300 295 304 268 249 232 222 225 219 219 205 216 215 225 257 252
307 310 313 310 305 307 307 302 299 305 314 311 310 309 308 308 309 310 309 311 305 296 312 310 299 298 255 235 221 216 223 221 218 228 232 226 240 250
318 315 310 308 308 310 305 306 311 310 314 309 310 307 305 307 308 315 309 305 300 297 290 280 290 279 260 256 247 240 238 223 238 243 261 249 222 251
316 315 317 319 329 326 320 316 314 315 315 315 315 314 315 315 317 316 321 330 309 289 294 286 265 264 278 280 270 246 238 237 238 240 245 248 227 244
324 325 329 337 323 318 316 320 321 318 317 316 316 319 314 316 317 310 306 304 308 301 269 280 299 266 250 262 270 272 244 242 241 238 244 241 241 242
328 328 340 320 319 315 317 319 318 317 320 321 320 322 319 318 320 315 305 300 305 301 298 283 276 258 240 247 241 241 243 247 245 235 231 235 233 237
335 336 337 333 333 323 317 325 331 331 330 326 319 320 323 326 323 318 315 317 308 309 297 292 284 250 224 221 234 237 246 244 238 233 235 232 232 240
330 339 333 330 327 333 333 334 330 327 326 321 314 309 313 316 319 316 311 309 311 308 308 290 296 274 248 238 220 218 235 238 237 232 227 230 236 240
331 324 323 332 340 338 329 327 327 324 320 320 313 311 308 308 306 306 308 299 295 293 296 296 300 286 276 257 240 222 230 234 237 240 235 232 235 236
331 333 326 338 343 333 324 323 323 324 321 316 311 310 306 304 299 297 298 292 291 295 297 293 296 291 291 272 255 238 228 222 227 228 231 235 234 229
338 331 325 343 328 322 325 327 330 328 321 316 313 314 307 302 302 292 299 294 291 291 296 288 292 299 299 286 276 271 253 234 230 229 232 234 232 227
338 337 309 331 331 334 333 333 331 329 323 317 312 310 312 310 309 291 294 289 286 292 292 294 308 324 320 309 108 284 264 260 241 243 232 227 221 220
335 331 333 345 339 339 339 339 337 327 324 319 315 309 311 314 314 310 286 283 284 271 270 274 281 269 287 298 310 317 261 258 258 237 229 231 227 227
325 325 336 339 340 347 348 345 346 343 338 332 326 323 322 320 317 308 284 276 283 279 277 266 269 279 265 286 310 316 320 317 262 246 240 236 234 235
326 329 324 329 343 344 349 353 358 357 351 343 334 328 322 314 317 310 297 261 268 276 274 263 258 265 260 269 294 312 318 321 301 254 312 234 233 230
343 331 327 336 344 342 347 357 1 2 356 346 340 337 334 321 322 323 304 270 264 274 261 262 260 264 252 258 278 294 303 300 299 280 323 229 214 218
338 336 335 340 340 340 350 357 358 3 358 349 344 337 331 335 331 328 305 272 275 270 255 248 260 257 253 257 271 281 292 284 292 299 344 90 203 224
336 338 340 344 343 346 354 354 357 1 357 351 352 355 349 347 344 335 310 284 281 284 269 224 224 212 230 257 269 275 263 270 285 308 349 329 215 222
339 348 354 352 351 356 355 354 357 358 357 358 5 8 6 357 351 337 319 297 294 283 261 241 222 227 240 260 274 265 254 253 261 307 300 333 305 270
25 11 8 4 2 360 356 357 357 357 0 2 4 5 3 357 348 340 332 315 285 233 271 235 217 207 211 224 232 282 263 231 236 253 295 323 329 350
26 23 17 16 9 3 359 360 358 359 3 2 357 359 356 347 337 334 323 302 274 261 270 284 249 214 207 235 261 276 292 232 225 239 292 314 302 355
19 17 21 21 14 8 3 0 0 3 3 2 358 360 357 8 26 10 5 1 28 70 303 103 154 179 192 218 251 277 278 211 214 239 268 312 219 64
8 10 14 15 11 8 3 3 4 4 4 4 9 13 11 26 25 21 17 43 74 109 125 128 136 156 190 242 256 202 165 160 174 183 167 139 110 103